Temperature
9 10 10 10 10 11 11 11 11 11 10 10 11 11 12 11 10 10 10 10 9 8 8 8 8 9 9 9 9 9 9 9 9 9 9 9 9 9 9 9 10 10 10 10
10 9 9 9 9 10 10 11 11 10 10 10 11 11 12 11 10 10 10 10 9 9 8 8 8 8 8 8 8 8 8 8 8 8 8 8 8 9 9 9 9 9 9 10
10 9 8 9 9 10 10 10 10 10 10 10 10 12 12 11 10 9 9 9 9 8 8 8 8 8 8 8 8 8 8 8 8 8 8 8 8 8 8 8 9 9 9 9
9 8 8 9 9 9 10 9 9 9 10 11 10 12 13 12 11 10 10 9 9 8 8 7 7 7 8 8 7 7 7 7 7 7 7 7 7 7 8 8 8 8 8 8
8 8 8 9 8 9 9 8 9 9 9 10 10 11 13 11 11 12 11 10 9 8 7 7 7 7 7 7 7 7 7 7 7 7 7 7 7 7 7 7 7 8 8 8
8 7 7 8 8 8 8 8 8 9 9 10 11 11 13 13 12 12 11 10 9 8 7 7 7 7 7 7 7 7 6 6 6 6 6 6 6 6 7 7 7 7 7 7
8 8 7 7 8 8 8 9 10 10 11 12 10 10 12 13 11 11 11 9 8 7 7 7 7 7 7 7 6 6 6 6 6 6 6 6 6 6 6 6 6 6 7 7
8 8 7 7 8 8 8 9 10 11 12 12 9 10 13 11 9 9 8 8 7 7 7 7 6 6 6 6 6 6 6 6 6 6 6 6 6 6 6 6 6 6 6 6
9 8 7 7 7 8 8 9 8 9 9 10 12 12 12 10 10 9 8 8 7 7 6 6 6 6 6 6 6 6 5 5 5 5 5 5 5 5 5 6 6 6 6 6
8 7 7 7 7 7 8 8 8 9 9 11 12 12 13 12 11 10 9 8 8 7 6 6 6 6 6 6 6 5 5 5 5 5 5 5 5 5 5 5 5 5 5 5
7 7 7 7 7 8 7 7 8 8 9 10 11 13 12 11 11 10 10 8 7 7 6 6 6 6 6 5 5 5 5 5 5 5 5 5 5 5 5 5 5 5 5 5
6 7 7 8 7 6 7 8 8 9 8 8 10 11 11 10 9 9 8 7 7 6 6 6 6 6 5 5 5 5 5 4 4 4 4 4 4 4 4 4 4 4 4 5
6 7 7 8 7 6 6 7 7 7 7 8 9 11 10 9 8 8 7 7 7 6 6 6 6 5 5 5 5 4 4 4 4 4 3 4 4 4 4 4 4 4 4 4
6 7 7 9 9 7 7 6 6 6 7 8 8 10 11 10 10 9 8 7 7 6 6 5 5 5 5 5 4 4 4 4 3 3 3 3 3 3 3 3 3 3 3 3
6 6 6 6 7 6 6 7 6 6 7 8 9 8 10 10 10 8 7 7 6 6 5 5 5 5 5 4 4 4 4 3 3 3 3 3 3 3 3 3 3 3 3 3
5 5 5 5 6 6 5 6 6 6 7 7 7 8 9 9 7 7 6 6 6 5 5 5 5 5 5 4 4 4 3 3 3 3 2 2 2 2 2 2 2 2 2 3
5 5 5 6 6 5 7 8 7 6 6 7 7 8 9 8 7 7 6 6 5 5 5 5 5 5 5 4 4 3 3 3 3 2 2 2 2 2 2 2 2 2 2 2
4 4 5 5 5 6 9 7 7 7 7 7 7 8 8 7 6 5 5 5 5 5 5 5 5 5 5 4 4 3 3 2 2 2 2 2 2 1 1 1 1 1 1 1
4 4 5 5 6 7 8 7 6 6 7 7 7 7 7 5 5 6 6 5 5 5 5 5 5 4 4 4 3 3 3 2 2 2 2 1 1 1 1 1 1 1 1 1
2 3 4 4 5 6 9 6 5 6 7 8 6 6 6 5 7 8 6 5 5 5 5 5 5 4 4 4 3 3 2 2 2 2 1 1 1 1 1 1 0 0 1 1
2 3 3 4 5 7 8 5 5 7 9 7 6 6 5 5 6 6 5 5 5 5 5 4 4 4 4 3 3 3 2 2 2 1 1 1 1 0 0 0 0 0 0 0
4 4 3 4 4 6 7 5 6 8 7 6 5 5 5 4 4 5 4 4 4 4 4 4 4 4 3 3 3 3 2 2 1 1 1 1 0 0 0 0 0 0 0 0
4 5 6 5 7 7 5 6 6 5 5 5 5 5 4 4 4 4 4 4 4 4 4 3 3 3 3 3 3 2 2 2 1 1 1 1 0 0 0 0 0 -0 -0 -0
4 3 4 4 5 6 5 5 5 5 5 5 5 4 4 3 3 3 3 3 3 3 3 3 3 3 3 3 2 2 2 2 1 1 1 0 0 0 0 -0 -0 -0 -0 -0
6 3 3 4 5 5 5 5 5 5 5 4 4 4 4 3 3 3 3 3 3 3 3 3 3 3 3 2 2 2 2 1 1 1 1 0 0 -0 -0 -0 -0 -1 -1 -1
4 4 4 6 6 6 6 5 5 5 4 4 4 3 3 3 3 3 3 3 2 2 2 2 2 2 2 2 2 2 2 1 1 1 1 0 -0 -0 -1 -1 -1 -1 -1 -1
Wind_Speed
3 3 3 3 1 2 4 4 2 1 1 2 5 8 8 6 7 7 7 7 6 4 3 2 1 2 3 4 5 6 7 7 6 5 5 5 5 5 4 4 5 5 5 5
3 4 2 3 4 4 3 3 1 0 1 2 4 8 7 6 7 7 7 7 6 5 4 2 2 2 3 4 5 6 6 7 6 6 6 5 6 5 5 4 5 5 5 5
4 2 2 3 4 3 1 1 1 1 2 2 4 5 4 4 5 6 7 6 6 6 5 4 3 3 4 4 5 5 6 7 7 7 5 5 5 4 4 4 4 5 5 5
3 1 2 3 1 0 0 0 1 1 2 1 2 3 4 5 6 7 8 7 7 6 5 4 3 4 4 4 5 5 6 6 6 6 5 6 6 6 6 5 5 5 5 5
2 1 1 1 1 1 1 1 1 1 2 2 3 4 4 4 7 9 8 7 6 5 5 4 4 4 4 4 4 5 5 6 6 5 6 6 6 6 5 5 5 5 4 5
2 1 1 1 1 1 2 2 2 1 2 4 3 5 4 5 7 6 6 6 6 5 4 4 3 3 3 3 4 4 5 5 5 6 6 6 7 7 6 6 5 4 4 4
2 1 1 0 1 1 1 1 1 2 3 3 2 5 7 3 4 5 6 5 4 4 3 3 3 3 3 3 4 4 5 5 6 6 6 6 6 6 6 6 5 5 4 4
1 0 0 1 1 1 1 2 2 2 3 2 3 6 4 1 2 4 5 4 4 4 3 3 3 3 3 3 4 4 5 6 6 6 6 6 6 5 4 5 5 5 5 5
0 1 1 1 1 1 2 2 1 1 1 4 5 5 6 3 4 5 5 4 4 4 3 3 3 3 3 3 4 4 5 5 6 6 7 6 6 5 5 5 5 5 5 5
0 2 2 1 1 0 2 2 2 2 2 4 5 5 4 4 4 4 5 5 4 4 4 4 3 3 4 4 4 4 5 5 6 6 6 6 6 6 6 5 5 5 6 5
1 2 1 2 4 4 4 3 3 2 3 3 4 4 1 3 3 4 4 4 4 5 5 4 4 4 4 4 4 4 5 5 6 6 6 6 6 6 6 5 5 5 6 6
1 2 3 3 0 2 4 5 5 4 4 4 4 6 1 3 3 4 4 4 4 5 5 5 5 4 4 4 4 4 5 5 5 6 6 6 6 6 6 5 6 6 5 5
3 2 2 2 2 3 4 5 6 4 3 5 6 6 2 1 3 4 5 6 6 6 6 6 5 5 5 4 4 5 5 5 5 5 6 6 6 6 6 6 6 5 5 5
3 4 6 6 3 2 5 7 8 8 6 8 12 14 10 9 9 9 9 9 8 8 7 7 6 6 5 5 5 5 5 5 5 5 5 5 6 6 6 6 5 5 5 5
3 5 7 11 11 10 13 14 13 15 15 12 13 15 17 14 13 11 10 9 9 8 8 8 7 7 6 5 5 5 5 5 4 5 5 5 6 6 6 5 5 5 5 4
3 4 4 7 8 10 15 18 18 18 18 20 21 21 17 12 9 9 9 9 9 9 8 8 8 7 7 6 5 5 5 4 4 5 5 5 5 5 5 5 4 4 4 4
4 4 3 6 5 8 11 12 15 11 13 12 16 14 10 9 9 9 9 9 9 9 9 8 8 7 7 6 6 5 5 4 4 5 5 4 4 5 5 5 4 4 4 4
6 4 3 5 5 8 4 2 6 10 12 14 14 13 11 11 10 10 10 10 9 9 8 8 7 7 6 6 5 5 4 4 4 4 4 4 4 5 5 4 4 4 3 3
9 7 4 4 6 10 8 4 5 7 8 10 14 14 11 8 8 8 6 7 9 9 8 7 6 6 5 5 5 4 4 4 4 4 4 4 4 4 4 4 4 4 3 3
5 7 6 5 6 7 3 3 3 3 5 4 7 8 6 4 6 5 3 5 8 8 7 6 5 5 5 5 5 5 5 5 5 5 5 4 4 4 4 4 4 3 3 3
5 6 10 11 9 10 6 4 6 4 2 2 4 5 5 6 7 8 8 8 8 8 7 6 5 5 6 5 5 6 6 7 6 5 4 4 4 4 4 4 3 3 3 3
9 8 9 8 9 10 5 8 7 5 2 3 4 6 8 10 11 10 10 10 9 8 7 6 6 6 5 5 6 7 8 6 5 4 4 4 4 4 3 3 3 3 3 2
10 10 6 10 10 5 6 9 6 5 7 8 8 8 9 11 11 11 11 11 10 9 8 7 7 6 5 6 7 8 7 5 4 5 5 4 4 4 3 3 3 2 2 2
8 7 8 10 14 14 13 14 13 13 13 13 12 11 11 12 13 13 12 11 10 9 8 7 6 7 7 6 7 8 6 4 5 5 5 4 4 4 3 3 3 3 2 2
9 7 9 13 15 14 14 13 12 12 12 12 12 11 11 12 13 13 12 12 10 9 8 7 7 8 8 7 7 7 6 5 6 6 5 4 4 4 4 4 3 4 4 3
12 13 13 14 14 11 13 11 10 11 12 11 11 12 11 11 13 13 12 11 10 9 8 7 8 8 8 7 7 6 5 6 6 5 5 4 4 3 3 3 3 4 5 4
Wind_Direction
36 93 110 117 92 125 153 166 185 250 328 270 250 261 264 242 220 216 208 204 208 216 226 242 285 312 324 332 332 331 333 333 332 329 324 316 311 304 293 288 284 283 279 270
108 77 73 100 103 118 144 160 161 187 16 283 277 276 267 236 220 215 209 207 211 221 229 245 278 304 316 323 328 327 328 326 326 322 316 302 303 301 298 292 289 288 282 272
99 87 108 124 112 115 97 192 194 262 323 259 287 267 214 198 204 213 217 217 222 226 236 246 265 290 306 316 321 320 320 319 320 319 313 307 302 295 294 300 298 300 293 282
77 89 134 127 83 224 217 199 223 237 266 267 283 269 221 198 211 214 213 214 222 227 237 249 266 285 298 310 319 320 321 320 320 319 315 313 306 299 296 298 296 300 296 291
85 88 124 139 326 278 70 84 202 241 249 260 230 246 242 194 221 215 211 214 222 224 232 247 265 281 293 307 318 322 323 323 324 321 316 312 306 299 295 298 298 302 305 305
52 11 347 359 15 134 142 131 131 183 232 247 219 236 250 206 213 207 203 209 215 220 233 249 268 281 293 312 321 323 324 327 329 325 319 312 307 301 296 297 300 304 307 309
38 64 32 298 149 145 197 211 231 216 225 240 164 241 254 240 221 222 216 212 216 223 232 249 268 282 294 310 322 325 326 327 330 326 322 317 310 302 295 296 296 299 301 302
7 229 28 329 289 224 214 268 277 261 256 279 215 241 259 258 236 233 230 226 225 228 231 244 259 274 286 302 315 321 322 323 326 326 323 320 316 308 301 302 300 296 293 294
308 281 30 338 317 248 191 193 326 288 284 267 246 259 275 221 225 220 223 226 231 231 235 245 258 272 284 294 304 310 313 317 323 324 322 319 319 316 308 303 300 294 293 290
258 260 271 304 198 101 305 171 184 211 251 265 263 252 248 219 215 212 221 230 235 234 241 248 254 265 277 287 299 304 309 313 316 320 320 319 319 317 312 303 301 300 297 293
247 236 252 224 219 210 178 191 214 222 259 263 276 263 225 238 242 236 238 245 245 243 252 257 258 264 271 283 294 299 306 309 313 316 317 318 318 317 314 305 302 300 298 299
210 238 257 250 231 301 237 225 207 230 233 237 267 274 109 248 254 252 266 267 262 256 261 264 259 259 263 274 286 293 298 301 307 310 313 316 318 315 312 306 305 304 303 301
184 219 275 233 191 197 228 223 222 238 245 231 241 258 119 206 246 265 276 279 275 268 265 263 254 251 256 266 276 284 289 295 302 307 311 315 317 317 314 309 306 307 306 301
209 238 239 256 293 209 236 231 218 214 229 243 242 261 267 271 281 286 284 282 281 276 269 261 255 251 256 263 269 276 284 290 298 302 306 310 313 318 317 314 310 308 305 301
217 253 253 264 272 266 260 254 236 230 236 246 258 264 273 283 288 285 282 282 279 274 270 263 257 254 255 259 265 271 278 285 292 295 300 306 312 316 319 321 319 316 312 309
222 252 271 273 265 266 267 257 245 242 243 248 261 271 278 287 283 276 275 276 273 271 270 267 258 254 253 254 259 265 272 280 284 287 294 304 310 313 315 317 318 318 321 322
210 220 258 274 296 292 268 250 228 223 224 230 244 256 274 281 280 281 281 276 269 273 274 268 261 252 249 249 248 252 259 266 270 278 289 298 303 305 309 312 317 319 321 322
209 206 243 282 297 252 254 140 213 224 240 232 245 261 271 280 290 285 275 270 271 276 276 271 264 258 252 248 245 246 248 250 258 270 283 291 294 296 303 307 309 311 311 312
218 214 231 248 266 276 279 238 203 217 259 236 239 255 270 289 291 278 265 256 265 275 275 271 265 259 251 243 236 236 242 246 253 264 273 280 282 286 293 295 298 300 301 304
203 216 228 230 247 255 273 147 164 207 264 217 219 247 267 278 285 302 318 291 282 279 276 270 268 258 245 235 222 226 238 243 250 256 262 267 269 273 278 281 286 289 290 293
178 200 220 232 244 263 266 162 161 224 284 159 222 255 256 255 274 301 305 296 289 287 282 274 264 252 244 226 215 226 237 244 251 254 256 259 261 265 268 272 276 278 278 282
195 195 206 210 226 250 190 163 204 257 303 252 265 272 270 272 283 289 292 291 288 286 281 271 262 257 246 221 217 231 240 247 248 246 248 250 255 260 262 264 269 268 268 276
215 212 212 213 231 265 192 219 250 276 273 278 280 281 281 281 282 287 290 290 286 282 278 268 258 258 249 225 220 234 243 238 237 241 244 246 249 251 252 252 254 252 257 266
229 224 233 251 258 262 264 264 268 267 269 277 279 280 278 276 281 285 286 286 284 279 273 265 255 252 251 236 230 237 238 226 229 238 242 240 242 245 244 243 244 244 245 253
236 205 231 254 268 278 268 257 262 270 270 273 275 275 271 272 276 281 283 282 279 276 269 257 249 250 252 243 235 233 226 217 225 235 238 234 235 239 238 238 241 243 242 247
232 226 236 255 261 263 276 278 273 274 274 273 278 280 273 268 274 280 279 279 277 273 266 257 251 250 251 243 237 230 218 214 220 228 231 232 231 235 240 246 255 251 252 256
Height
1506 1505 1505 1506 1506 1505 1505 1505 1505 1507 1510 1509 1504 1502 1501 1504 1505 1505 1506 1507 1508 1508 1509 1508 1507 1506 1505 1504 1502 1500 1498 1496 1494 1492 1490 1488 1486 1485 1484 1483 1483 1482 1483 1483
1506 1508 1511 1510 1510 1508 1507 1506 1506 1508 1510 1509 1504 1501 1499 1500 1501 1502 1503 1504 1505 1506 1506 1506 1505 1504 1503 1501 1499 1497 1495 1493 1491 1489 1487 1485 1483 1482 1481 1480 1479 1479 1479 1479
1507 1512 1513 1511 1510 1509 1509 1507 1507 1508 1510 1508 1507 1496 1495 1497 1500 1501 1501 1502 1503 1503 1504 1503 1503 1502 1501 1499 1497 1495 1493 1491 1489 1487 1484 1482 1480 1479 1478 1477 1476 1475 1475 1475
1511 1514 1513 1511 1511 1509 1508 1511 1511 1511 1508 1503 1505 1495 1489 1492 1495 1497 1498 1499 1500 1501 1501 1501 1500 1499 1498 1496 1495 1493 1490 1488 1486 1484 1482 1480 1478 1476 1474 1473 1472 1472 1472 1471
1513 1514 1513 1512 1513 1512 1511 1513 1512 1512 1510 1507 1504 1500 1485 1491 1491 1491 1494 1496 1497 1498 1498 1498 1497 1497 1495 1494 1492 1490 1488 1486 1484 1482 1479 1477 1475 1473 1472 1470 1469 1469 1468 1468
1516 1517 1516 1515 1515 1515 1514 1513 1512 1512 1508 1504 1499 1497 1484 1483 1484 1486 1490 1493 1494 1495 1495 1495 1494 1494 1492 1491 1489 1487 1486 1484 1481 1479 1477 1475 1472 1470 1469 1467 1466 1465 1464 1464
1515 1517 1517 1517 1515 1515 1514 1510 1506 1504 1501 1493 1502 1499 1484 1480 1484 1486 1488 1490 1492 1492 1492 1492 1491 1491 1490 1488 1487 1485 1483 1481 1479 1476 1474 1472 1470 1468 1466 1464 1463 1462 1461 1460
1513 1513 1517 1517 1515 1513 1513 1511 1507 1500 1494 1490 1500 1493 1480 1483 1485 1487 1488 1489 1489 1490 1490 1489 1489 1488 1487 1486 1485 1483 1481 1479 1476 1474 1472 1469 1467 1465 1463 1462 1460 1459 1458 1457
1512 1514 1518 1518 1518 1516 1513 1511 1513 1510 1509 1502 1487 1484 1479 1481 1483 1485 1486 1487 1487 1487 1487 1487 1487 1486 1485 1484 1482 1480 1478 1476 1474 1471 1469 1467 1464 1462 1461 1459 1458 1456 1455 1454
1517 1517 1516 1518 1518 1518 1516 1513 1513 1510 1504 1492 1483 1480 1474 1475 1477 1481 1483 1484 1485 1485 1485 1485 1484 1483 1482 1481 1480 1478 1476 1473 1471 1469 1466 1464 1462 1460 1458 1456 1455 1453 1452 1451
1519 1518 1516 1516 1514 1511 1516 1516 1512 1508 1506 1497 1485 1475 1473 1475 1476 1479 1480 1482 1483 1483 1483 1482 1482 1481 1480 1478 1477 1475 1473 1471 1468 1466 1463 1461 1459 1457 1455 1453 1451 1449 1448 1447
1520 1517 1513 1512 1514 1515 1513 1510 1509 1507 1505 1503 1493 1481 1475 1477 1478 1479 1479 1480 1480 1480 1480 1479 1479 1478 1476 1475 1474 1472 1470 1467 1465 1463 1460 1458 1456 1453 1451 1449 1448 1446 1444 1443
1520 1517 1511 1505 1513 1516 1513 1511 1510 1509 1507 1502 1494 1479 1476 1478 1478 1478 1478 1478 1478 1477 1477 1476 1475 1474 1473 1472 1470 1468 1466 1464 1462 1460 1457 1455 1452 1450 1448 1446 1444 1443 1441 1440
1519 1516 1512 1502 1498 1505 1507 1508 1509 1509 1504 1494 1487 1475 1472 1474 1475 1476 1476 1476 1475 1474 1473 1472 1471 1470 1469 1468 1466 1465 1463 1461 1459 1457 1454 1452 1449 1447 1445 1443 1441 1440 1438 1436
1518 1514 1511 1507 1506 1506 1503 1501 1503 1502 1495 1491 1478 1477 1470 1471 1472 1473 1473 1472 1471 1470 1469 1468 1467 1466 1465 1464 1463 1461 1460 1458 1456 1453 1451 1449 1447 1444 1442 1440 1438 1436 1435 1433
1516 1513 1512 1507 1504 1503 1499 1493 1492 1492 1490 1485 1480 1474 1469 1470 1471 1470 1470 1469 1467 1466 1465 1463 1462 1462 1461 1460 1459 1457 1456 1454 1452 1450 1448 1446 1444 1441 1439 1437 1435 1434 1432 1430
1514 1513 1510 1499 1501 1499 1486 1476 1479 1480 1478 1479 1475 1468 1467 1468 1468 1467 1466 1465 1463 1462 1460 1459 1458 1457 1457 1456 1455 1454 1452 1451 1449 1447 1445 1443 1441 1439 1436 1435 1433 1431 1429 1427
1512 1511 1509 1502 1500 1493 1470 1474 1473 1474 1472 1472 1469 1466 1467 1466 1465 1463 1462 1461 1459 1458 1457 1455 1454 1453 1453 1452 1451 1450 1449 1447 1446 1444 1442 1440 1438 1436 1434 1432 1430 1429 1427 1426
1508 1508 1506 1502 1493 1479 1469 1470 1472 1472 1466 1464 1465 1464 1464 1464 1462 1459 1457 1456 1456 1455 1453 1452 1451 1450 1449 1448 1447 1446 1445 1444 1442 1441 1439 1437 1435 1434 1432 1430 1428 1427 1425 1424
1508 1508 1505 1501 1495 1479 1462 1469 1470 1471 1463 1460 1461 1461 1461 1462 1458 1455 1455 1453 1452 1451 1449 1448 1446 1445 1444 1444 1443 1442 1441 1440 1439 1437 1436 1434 1433 1431 1429 1428 1427 1425 1424 1422
1504 1504 1502 1496 1490 1471 1464 1467 1470 1467 1456 1458 1458 1458 1459 1458 1456 1454 1451 1449 1448 1446 1445 1443 1442 1441 1440 1440 1439 1438 1437 1436 1436 1434 1433 1431 1430 1429 1427 1426 1425 1423 1422 1420
1489 1490 1491 1488 1485 1471 1461 1465 1463 1456 1456 1455 1455 1456 1455 1453 1451 1449 1447 1445 1444 1442 1440 1439 1438 1437 1436 1435 1434 1433 1433 1433 1432 1431 1429 1428 1427 1426 1425 1424 1422 1421 1420 1418
1481 1476 1473 1472 1464 1458 1458 1457 1456 1455 1454 1453 1452 1451 1451 1449 1447 1445 1443 1441 1439 1437 1436 1434 1433 1432 1431 1431 1430 1430 1429 1429 1428 1427 1426 1425 1424 1423 1422 1421 1420 1418 1417 1416
1472 1472 1471 1467 1457 1455 1455 1454 1453 1452 1451 1449 1448 1447 1445 1443 1441 1439 1437 1435 1434 1432 1431 1430 1428 1427 1426 1426 1426 1425 1425 1424 1423 1423 1422 1421 1420 1419 1419 1418 1417 1416 1415 1414
1462 1466 1464 1458 1452 1451 1448 1447 1447 1446 1445 1444 1442 1441 1439 1437 1435 1434 1431 1429 1428 1427 1425 1424 1423 1422 1422 1421 1421 1421 1420 1420 1419 1419 1418 1417 1417 1416 1415 1415 1414 1413 1412 1411
1455 1455 1454 1446 1444 1445 1442 1442 1442 1441 1439 1438 1436 1434 1433 1432 1429 1427 1425 1424 1422 1421 1420 1418 1418 1417 1417 1417 1416 1416 1416 1415 1415 1415 1414 1414 1413 1412 1412 1411 1410 1409 1409 1408